Location: Unspecified
(0.0000°N, 0.0000°E)
Time: 07:31:44
(UTC+00:00)

S-56A Canister/Altair - Pass Details

Date: 15 December 2018
Orbit: 633 x 2499 km, 38.9° (Epoch: 16 June)

Event Time Altitude Azimuth Distance (km) Brightness Sun altitude
Rises 22:25:41 0° 215° (SW) 2,980 - -58.1°
Reaches altitude 10° 22:27:54 10° 208° (SSW) 2,150 - -58.5°
Maximum altitude 22:32:32 43° 135° (SE) 1,134 - -59.2°
Drops below altitude 10° 22:38:45 10° 65° (ENE) 2,891 - -60.2°
Sets 22:42:09 0° 59° (ENE) 4,146 - -60.7°
